Waarnemingen

Advertentie
Mijn weer
Vlieland, Nederland (6242): temperatuur & dauwpunt: 13.01.2018 23:00:00 - 19.01.2018 23:00:00 (CET)Vlieland, Nederland (6242): temperatuur 5cm: 13.01.2018 23:00:00 - 19.01.2018 23:00:00 (CET)Vlieland, Nederland (6242): windsnelheid & windstoten: 13.01.2018 23:00:00 - 19.01.2018 23:00:00 (CET)Vlieland, Nederland (6242): windrichting: 13.01.2018 23:00:00 - 19.01.2018 23:00:00 (CET)Vlieland, Nederland (6242): luchtdruk: 13.01.2018 23:00:00 - 19.01.2018 23:00:00 (CET)Vlieland, Nederland (6242): zicht: 13.01.2018 23:00:00 - 19.01.2018 23:00:00 (CET)
Datum & Tijd tt [°C] td [°C] tt 5cm [°C] ff [km/u] ff [kn] fx [km/u] fx [kn] dd ppp [hPa] vv [km]
19.01.2018 23:00:00 2,4 1,4 2,3 32 18 54 29 W 1005,6 4,3
19.01.2018 22:00:00 3,6 0,5 3,1 40 21 54 29 WZW 1004,9 14
19.01.2018 21:00:00 3,9 0,1 3,1 32 18 47 25 W 1005,0 12
19.01.2018 20:00:00 4,1 0,8 3,4 41 22 50 27 W 1004,9 10
19.01.2018 19:00:00 4,5 1,6 3,9 36 19 47 25 WZW 1005,1 14
19.01.2018 18:00:00 4,2 2,2 3,6 35 19 47 25 W 1005,0 10
19.01.2018 17:00:00 4,2 2,0 3,9 32 18 43 23 W 1005,0 13
19.01.2018 16:00:00 4,1 1,3 4,1 35 19 43 23 WZW 1005,1 10
19.01.2018 15:00:00 5,2 2,4 5,6 36 19 43 23 WZW 1005,0 11
19.01.2018 14:00:00 5,4 1,6 5,6 34 18 40 21 W 1005,2 10
19.01.2018 13:00:00 4,5 1,3 4,5 31 17 47 25 W 1005,1 10
19.01.2018 12:00:00 4,2 1,1 4,2 32 18 47 25 W 1005,3 11
19.01.2018 11:00:00 5,6 1,9 5,4 31 17 43 23 W 1005,1 10
19.01.2018 10:00:00 4,8 1,8 4,5 37 20 43 23 W 1004,5 10
19.01.2018 09:00:00 4,8 1,5 4,2 35 19 43 23 WNW 1004,0 10
19.01.2018 08:00:00 4,7 1,5 4,1 34 18 47 25 WNW 1003,2 10
19.01.2018 07:00:00 4,8 1,5 4,0 37 20 43 23 WNW 1002,8 10
19.01.2018 06:00:00 3,9 2,1 3,3 18 10 36 19 NW 1002,4 10
19.01.2018 05:00:00 3,2 2,1 2,4 13 7 43 23 W 1001,9 10
19.01.2018 04:00:00 4,3 2,2 4,0 21 11 43 23 W 1001,7 10
19.01.2018 03:00:00 4,8 2,1 4,1 28 15 43 23 W 1001,3 10
19.01.2018 02:00:00 4,4 1,4 4,1 28 15 43 23 WNW 1001,0 10
19.01.2018 01:00:00 4,9 2,5 4,2 22 12 25 14 WNW 1000,6 10
19.01.2018 00:00:00 4,3 2,3 3,5 22 12 40 21 W 1000,3 10
18.01.2018 23:00:00 4,5 1,9 4,3 31 17 43 23 WNW 1000,1 10
18.01.2018 22:00:00 4,8 1,4 3,9 26 14 36 19 WNW 1000,0 10
18.01.2018 21:00:00 4,8 1,5 4,1 31 17 40 21 W 999,7 10
18.01.2018 20:00:00 4,9 1,8 4,3 34 18 43 23 W 999,5 10
18.01.2018 19:00:00 4,9 2,1 4,3 34 18 50 27 W 999,0 10
18.01.2018 18:00:00 4,5 2,8 3,5 31 17 54 29 W 998,6 9
18.01.2018 17:00:00 5,0 1,8 4,4 39 21 50 27 W 998,1 10
18.01.2018 16:00:00 5,2 2,4 4,9 41 22 58 31 W 997,2 10
18.01.2018 15:00:00 5,4 2,3 5,2 41 22 58 31 WNW 996,2 10
18.01.2018 14:00:00 5,6 2,1 5,3 50 27 65 35 NW 995,1 10
18.01.2018 13:00:00 4,7 2,5 4,4 52 28 76 41 NNW 993,4 9
18.01.2018 12:00:00 4,9 2,8 4,5 68 37 94 51 NW 990,6 10
18.01.2018 11:00:00 3,9 2,5 3,6 83 45 112 60 NNW 984,7 4,9
18.01.2018 10:00:00 5,6 3,9 5,3 59 32 83 45 W 976,1 6
18.01.2018 09:00:00 6,8 4,2 6,1 65 35 90 49 WZW 976,9 8
18.01.2018 08:00:00 7,9 5,8 7,3 59 32 76 41 WZW 977,5 9
18.01.2018 07:00:00 5,5 5,2 4,1 39 21 72 39 Z 980,0 5
18.01.2018 06:00:00 1,8 1,4 0,9 41 22 58 31 ZZO 983,8 4,6
18.01.2018 05:00:00 2,2 1,5 2,1 44 24 58 31 Z 988,4 3,4
18.01.2018 04:00:00 3,7 2,3 3,6 37 20 54 29 Z 992,6 10
18.01.2018 03:00:00 5,0 2,4 4,7 28 15 43 23 ZZW 995,5 10
18.01.2018 02:00:00 5,3 1,9 4,9 41 22 50 27 WZW 997,4 10
18.01.2018 01:00:00 5,5 1,9 5,2 41 22 54 29 WZW 999,3 10
18.01.2018 00:00:00 5,4 1,9 5,1 42 23 65 35 W 1000,5 9
17.01.2018 23:00:00 5,6 1,9 5,2 52 28 72 39 W 1000,6 9
17.01.2018 22:00:00 5,5 1,5 5,1 57 31 72 39 W 1000,7 7
17.01.2018 21:00:00 5,7 1,0 5,2 55 30 76 41 W 1000,8 9
17.01.2018 20:00:00 5,8 1,8 5,5 57 31 72 39 W 1000,7 9
17.01.2018 19:00:00 5,9 1,9 5,6 57 31 72 39 W 1001,0 8
17.01.2018 18:00:00 5,8 1,7 5,5 59 32 76 41 W 1000,8 7
17.01.2018 17:00:00 5,8 1,2 5,3 61 33 79 43 WNW 1000,4 8
17.01.2018 16:00:00 5,5 1,3 5,1 65 35 76 41 WNW 999,1 8
17.01.2018 15:00:00 5,5 0,4 4,9 61 33 79 43 WNW 997,9 10
17.01.2018 14:00:00 4,7 1,9 3,0 54 29 86 47 WNW 996,9 9
17.01.2018 13:00:00 3,0 1,5 2,8 65 35 83 45 WNW 996,4 6
17.01.2018 12:00:00 3,1 1,1 3,1 44 24 79 43 NW 995,7 10
17.01.2018 11:00:00 4,5 0,8 4,2 55 30 68 37 WNW 994,6 3,5
17.01.2018 10:00:00 3,7 1,4 3,2 54 29 72 39 W 993,6 10
17.01.2018 09:00:00 3,7 -0,1 3,6 42 23 72 39 WNW 993,0 8
17.01.2018 08:00:00 4,2 -0,2 3,9 54 29 68 37 W 991,9 10
17.01.2018 07:00:00 3,6 -0,6 3,4 55 30 72 39 W 990,9 10
17.01.2018 06:00:00 4,1 -0,2 3,5 57 31 72 39 W 990,0 10
17.01.2018 05:00:00 3,5 -0,9 3,3 55 30 72 39 W 989,2 10
17.01.2018 04:00:00 4,5 -0,1 3,8 48 26 65 35 W 988,6 10
17.01.2018 03:00:00 4,3 -0,2 3,0 55 30 68 37 WNW 988,1 10
17.01.2018 02:00:00 3,1 0,7 2,7 54 29 76 41 W 987,8 10
17.01.2018 01:00:00 3,5 0,7 2,6 46 25 76 41 WNW 988,2 10
17.01.2018 00:00:00 4,8 0,3 4,3 57 31 68 37 W 987,9 10
16.01.2018 23:00:00 4,9 1,1 4,0 50 27 68 37 W 987,6 10
16.01.2018 22:00:00 5,2 0,2 4,6 50 27 68 37 W 988,1 10
16.01.2018 21:00:00 5,3 0,8 4,4 48 26 65 35 W 988,3 10
16.01.2018 20:00:00 4,9 1,5 4,2 44 24 72 39 W 988,7 10
16.01.2018 19:00:00 5,2 1,1 4,6 54 29 76 41 W 988,7 10
16.01.2018 18:00:00 5,3 0,6 4,8 52 28 68 37 W 989,3 10
16.01.2018 17:00:00 5,3 1,1 5,0 54 29 65 35 W 989,5 10
16.01.2018 16:00:00 5,3 0,7 4,9 52 28 61 33 W 989,5 10
16.01.2018 15:00:00 5,3 0,1 5,1 50 27 65 35 W 989,1 10
16.01.2018 14:00:00 5,6 1,1 5,4 54 29 76 41 W 988,9 12
16.01.2018 13:00:00 4,6 0,8 4,5 54 29 72 39 W 988,9 10
16.01.2018 12:00:00 5,6 1,1 5,6 55 30 68 37 W 988,6 10
16.01.2018 11:00:00 5,6 0,9 5,3 55 30 68 37 W 987,8 10
16.01.2018 10:00:00 5,5 1,9 5,2 50 27 65 35 WNW 987,1 10
16.01.2018 09:00:00 6,0 2,3 5,6 46 25 58 31 W 986,5 10
16.01.2018 08:00:00 6,0 2,4 5,6 44 24 68 37 W 986,3 10
16.01.2018 07:00:00 5,7 2,9 5,3 46 25 61 33 W 986,0 10
16.01.2018 06:00:00 5,7 3,3 5,2 52 28 65 35 W 985,7 10
16.01.2018 05:00:00 5,3 3,2 5,1 50 27 61 33 W 986,2 4,2
16.01.2018 04:00:00 5,4 2,7 5,3 50 27 65 35 W 986,6 10
16.01.2018 03:00:00 5,8 3,3 5,2 48 26 72 39 W 987,1 10
16.01.2018 02:00:00 6,4 3,7 6,0 46 25 65 35 W 987,8 10
16.01.2018 01:00:00 6,3 3,7 5,9 50 27 65 35 W 987,8 10
16.01.2018 00:00:00 6,3 3,8 5,9 46 25 61 33 W 987,5 10
15.01.2018 23:00:00 6,4 4,5 5,9 44 24 58 31 W 987,0 10
15.01.2018 22:00:00 6,7 4,8 6,1 46 25 58 31 W 986,9 10
15.01.2018 21:00:00 7,0 6,3 6,7 41 22 50 27 W 985,7 8
15.01.2018 20:00:00 7,2 7,0 6,8 46 25 54 29 ZW 985,1 4,7
15.01.2018 19:00:00 5,3 4,9 5,3 39 21 54 29 Z 985,6 4,7
15.01.2018 18:00:00 5,4 4,9 5,3 39 21 65 35 Z 987,8 6
15.01.2018 17:00:00 5,8 5,0 5,6 54 29 76 41 Z 989,0 4,0
15.01.2018 16:00:00 5,6 5,2 5,2 52 28 65 35 ZZW 990,8 3,4
15.01.2018 15:00:00 4,7 4,3 4,7 46 25 65 35 Z 992,8 3,5
15.01.2018 14:00:00 4,8 3,9 4,5 48 26 68 37 Z 994,5 4,2
15.01.2018 13:00:00 4,6 3,8 4,4 50 27 61 33 Z 996,7 5
15.01.2018 12:00:00 4,0 3,4 3,9 42 23 58 31 Z 999,1 5
15.01.2018 11:00:00 3,6 2,8 3,5 42 23 61 33 Z 1001,4 3,8
15.01.2018 10:00:00 3,7 3,0 3,7 41 22 61 33 Z 1002,8 3,5
15.01.2018 09:00:00 3,5 2,9 3,5 34 18 47 25 Z 1004,3 2,6
15.01.2018 08:00:00 3,6 2,4 3,5 35 19 43 23 Z 1005,4 5
15.01.2018 07:00:00 3,5 2,2 3,4 35 19 43 23 Z 1006,9 4,8
15.01.2018 06:00:00 3,3 2,3 3,4 34 18 47 25 Z 1007,9 4,6
15.01.2018 05:00:00 3,6 2,5 3,1 35 19 47 25 Z 1009,2 5
15.01.2018 04:00:00 2,9 2,0 2,8 28 15 40 21 Z 1010,8 3,5
15.01.2018 03:00:00 2,5 1,5 2,4 29 16 40 21 Z 1011,7 5
15.01.2018 02:00:00 2,2 0,9 2,2 29 16 40 21 Z 1013,0 6
15.01.2018 01:00:00 2,3 0,8 2,2 28 15 36 19 Z 1014,1 7
15.01.2018 00:00:00 2,1 0,5 1,6 22 12 32 18 Z 1015,1 8
14.01.2018 23:00:00 2,3 0,6 1,6 22 12 36 19 Z 1015,9 8
14.01.2018 22:00:00 2,3 0,6 1,6 26 14 36 19 Z 1016,8 9
14.01.2018 21:00:00 1,8 -0,1 1,1 29 16 43 23 ZZO 1017,6 10
14.01.2018 20:00:00 1,7 -0,4 1,1 34 18 43 23 ZO 1018,0 10
14.01.2018 19:00:00 1,8 -0,5 1,2 34 18 40 21 ZO 1018,8 10
14.01.2018 18:00:00 1,8 -0,3 1,4 31 17 40 21 ZO 1019,1 10
14.01.2018 17:00:00 1,9 -0,4 1,7 28 15 32 18 OZO 1019,4 10
14.01.2018 16:00:00 1,8 -0,8 1,8 24 13 32 18 OZO 1020,2 10
14.01.2018 15:00:00 1,8 -0,8 1,7 26 14 32 18 OZO 1020,4 10
14.01.2018 14:00:00 1,6 -0,9 1,6 24 13 36 19 ZO 1020,6 10
14.01.2018 13:00:00 1,4 -1,1 1,5 31 17 36 19 OZO 1021,2 10
14.01.2018 12:00:00 1,4 -1,0 1,4 34 18 40 21 OZO 1022,0 10
14.01.2018 11:00:00 1,2 -1,0 1,2 31 17 40 21 OZO 1022,4 10
14.01.2018 10:00:00 1,1 -1,0 1,1 34 18 43 23 OZO 1022,6 10
14.01.2018 09:00:00 1,2 -0,9 1,2 35 19 40 21 OZO 1022,7 10
14.01.2018 08:00:00 1,4 -0,6 1,3 34 18 40 21 O 1022,8 10
14.01.2018 07:00:00 1,4 -0,6 1,3 31 17 40 21 O 1022,8 10
14.01.2018 06:00:00 1,7 -0,4 1,6 31 17 43 23 O 1023,2 10
14.01.2018 05:00:00 1,9 0,1 1,8 34 18 40 21 O 1022,9 8
14.01.2018 04:00:00 2,2 0,9 2,1 29 16 36 19 O 1023,4 5
14.01.2018 03:00:00 2,5 1,2 2,3 31 17 40 21 O 1023,8 5
14.01.2018 02:00:00 2,6 1,3 2,4 31 17 40 21 O 1023,7 5
14.01.2018 01:00:00 2,8 1,4 2,6 28 15 40 21 O 1023,8 5
14.01.2018 00:00:00 3,3 1,9 3,1 29 16 40 21 O 1024,0 6
13.01.2018 23:00:00 3,6 2,5 3,4 28 15 32 18 O 1024,2 6

tt = temperatuur
td = dauwpunt
tt 5cm = temperatuur 5cm
ff = windsnelheid
fx = windstoten
dd = windrichting
ppp = luchtdruk
vv = zicht

Weerstations in de omgeving